Location: Hilton Head Island
(32.2163°N, 80.7526°W)
Time: 13:08:41
(UTC-05:00)

Vanguard 2 - Pass Details

Date: 25 February 2026
Orbit: 553 x 2896 km, 32.9° (Epoch: 6 March)

Event Time Altitude Azimuth Distance (km) Brightness Sun altitude
Exits shadow 04:48:51 61° 258° (WSW) 1,314 8.3 -27.4°
Maximum altitude 04:50:21 88° 174° (S) 1,088 8.1 -27.1°
Drops below altitude 10° 04:55:58 10° 82° (E) 2,383 11.1 -25.9°
Sets 04:57:57 0° 82° (E) 3,138 12.0 -25.5°
